Regional Weather Roundup
Issued by NWS

Home | Current Version | Previous Version | Graphics & Text | Print | Product List | Glossary On
Versions: 1 2 3 4 5 6 7 8 9 10 11 12 13 14 15 16 17 18 19 20 21 22 23 24 25 26 27 28 29 30 31 32 33 34 35 36 37 38 39 40 41 42 43 44 45 46 47 48 49 50
000
ASUS45 KPSR 231210
RWRAZ

ARIZONA REGIONAL HOURLY WEATHER ROUNDUP
NATIONAL WEATHER SERVICE PHOENIX AZ
500 AM MST TUE SEP 23 2014

NOTE: FAIR INDICATES FEW OR NO CLOUDS BELOW 12,000 FEET WITH NO
SIGNIFICANT WEATHER AND/OR OBSTRUCTIONS TO VISIBILITY.

AZZ001>003-036-231300-
NORTHWEST ARIZONA

CITY           SKY/WX    TMP DP  RH WIND       PRES   REMARKS
BULLHEAD CITY  CLEAR     75  39  27 CALM      29.93S
KINGMAN        CLEAR     60  37  42 S5        30.09S
6HR MIN TEMP:  57; 6HR MAX TEMP:  71;

$$

AZZ004>008-015-016-018-231300-
NORTH CENTRAL ARIZONA

CITY           SKY/WX    TMP DP  RH WIND       PRES   REMARKS
GRAND CANYON   CLEAR     38  35  89 CALM      30.31S
6HR MIN TEMP:  38; 6HR MAX TEMP:  47;

PRESCOTT       CLEAR     53  37  54 SW3       30.21R
6HR MIN TEMP:  52; 6HR MAX TEMP:  62;

FLAGSTAFF      CLEAR     43  39  86 CALM      30.33S
6HR MIN TEMP:  43; 6HR MAX TEMP:  50;

PAYSON         CLEAR     61  54  77 CALM      30.22S
PAGE           CLEAR     65  43  44 SW3       30.15R
6HR MIN TEMP:  64; 6HR MAX TEMP:  72;

$$

AZZ009>014-017-231300-
NORTHEAST ARIZONA

CITY           SKY/WX    TMP DP  RH WIND       PRES   REMARKS
WINSLOW        CLEAR     55  50  83 CALM      30.20S
6HR MIN TEMP:  55; 6HR MAX TEMP:  66;

SAINT JOHNS    CLEAR     59  57  93 CALM      30.24S
6HR MIN TEMP:  59; 6HR MAX TEMP:  65;

WINDOW ROCK    PTCLDY    49  46  90 CALM      30.32R
6HR MIN TEMP:  49; 6HR MAX TEMP:  59;

SHOW LOW       CLEAR     57  55  94 S7        30.31S
$$

AZZ023-231300-
GREATER PHOENIX AREA

CITY           SKY/WX    TMP DP  RH WIND       PRES   REMARKS
PHOENIX        CLEAR     80  57  45 SE3       29.91R
6HR MIN TEMP:  79; 6HR MAX TEMP:  90;

BUCKEYE          N/A     68  50  52 NW6       29.92S
LUKE AFB       CLEAR     73  49  42 N6        29.91S
6HR MIN TEMP:  73; 6HR MAX TEMP:  81;

DEER VALLEY    CLEAR     76  47  35 N8        29.93R
6HR MIN TEMP:  76; 6HR MAX TEMP:  82;

SCOTTSDALE     CLEAR     75  55  49 CALM      29.94S
6HR MIN TEMP:  75; 6HR MAX TEMP:  86;

MESA-GATEWAY   CLEAR     77  59  53 E7        29.95R
$$

AZZ027-028-231300-
SOUTHWEST MARICOPA COUNTY AND PINAL COUNTY

CITY           SKY/WX    TMP DP  RH WIND       PRES   REMARKS
CASA GRANDE    CLEAR     73  52  46 CALM      29.94R
6HR MIN TEMP:  72; 6HR MAX TEMP:  81;

$$

AZZ503-504-507>509-231300-
SOUTHEAST ARIZONA

CITY           SKY/WX    TMP DP  RH WIND       PRES   REMARKS
TUCSON         CLEAR     75  62  64 S5        30.03S
6HR MIN TEMP:  75; 6HR MAX TEMP:  82;

DAVIS-MONTHAN  CLEAR     75  65  70 S2        30.02R
6HR MIN TEMP:  74; 6HR MAX TEMP:  79;

NOGALES        CLEAR     66  63  90 NE5       30.09S
6HR MIN TEMP:  66; 6HR MAX TEMP:  73;

SIERRA VISTA   CLEAR     64  63  94 CALM      30.16R
DOUGLAS        CLEAR     65  61  87 CALM      30.13S
6HR MIN TEMP:  64; 6HR MAX TEMP:  69;

SAFFORD        CLEAR     71  64  78 SE7       30.09R
6HR MIN TEMP:  71; 6HR MAX TEMP:  77;

$$

AZZ020-021-025-026-031-231300-
SOUTHWEST ARIZONA

CITY           SKY/WX    TMP DP  RH WIND       PRES   REMARKS
YUMA           CLEAR     80  67  64 N6        29.86R
6HR MIN TEMP:  80; 6HR MAX TEMP:  86;

$$

CAZ031-033-041-043-047-048-061-231300-
SOUTHERN CALIFORNIA

CITY           SKY/WX    TMP DP  RH WIND       PRES   REMARKS
DOWNTOWN L.A.  CLEAR     64  60  87 CALM      29.94R
6HR MIN TEMP:  64; 6HR MAX TEMP:  67;

L.A. AIRPORT   PTCLDY    65  61  86 N3        29.95R
6HR MIN TEMP:  65; 6HR MAX TEMP:  68;

SAN DIEGO      CLOUDY    68  62  81 N5        29.94F
6HR MIN TEMP:  67; 6HR MAX TEMP:  70;

BURBANK        CLEAR     63  52  67 CALM      29.95R
6HR MIN TEMP:  63; 6HR MAX TEMP:  69;

ONTARIO        CLEAR     67  59  75 CALM      29.95F
6HR MIN TEMP:  65; 6HR MAX TEMP:  72;

RIVERSIDE      CLEAR     63  59  87 CALM      29.96S
6HR MIN TEMP:  63; 6HR MAX TEMP:  73;

PALM SPRINGS   CLEAR     79  42  26 CALM      29.91R
6HR MIN TEMP:  74; 6HR MAX TEMP:  88;

EL CENTRO NAS  CLEAR     77  56  48 W3        29.84S
6HR MIN TEMP:  74; 6HR MAX TEMP:  86;

IMPERIAL       CLEAR     74  61  63 W5        29.84R
6HR MIN TEMP:  74; 6HR MAX TEMP:  87;

BLYTHE         CLEAR     75  49  39 N6        29.87S
6HR MIN TEMP:  75; 6HR MAX TEMP:  86;

NEEDLES        CLEAR     75  40  28 CALM      29.92S
6HR MIN TEMP:  75; 6HR MAX TEMP:  86;

$$

NVZ020-UTZ003-231300-
SOUTHERN NEVADA-UTAH

CITY           SKY/WX    TMP DP  RH WIND       PRES   REMARKS
LAS VEGAS      CLEAR     73  38  27 SW8       29.96R
6HR MIN TEMP:  73; 6HR MAX TEMP:  82;

SALT LAKE CITY CLEAR     61  53  75 SE9       30.12R
6HR MIN TEMP:  59; 6HR MAX TEMP:  67;

$$

NMZ009-TXZ055-231300-
NEW MEXICO-WEST TEXAS

CITY           SKY/WX    TMP DP  RH WIND       PRES   REMARKS
ALBUQUERQUE    PTCLDY    61  56  83 CALM      30.26S
6HR MIN TEMP:  60; 6HR MAX TEMP:  66;

EL PASO        PTCLDY    66  64  93 S6        30.15F
6HR MIN TEMP:  66; 6HR MAX TEMP:  69;

$$


........................KEY........................
SKY/WX - SKY CONDITION/WEATHER
TMP    - TEMPERATURE IN FAHRENHEIT
DP     - DEW POINT IN FAHRENHEIT
RH     - RELATIVE HUMIDITY IN PERCENT
WIND   - DIRECTION AND SPEED IN MILES PER HOUR (MPH)
VRB    - VARIABLE WIND DIRECTION
PRES   - MEAN SEA LEVEL PRESSURE IN INCHES OF MERCURY
         F - FALLING PRESSURE   R - RISING PRESSURE
         S - STEADY PRESSURE
VSB    - VISIBILITY IN MILES
HX     - HEAT INDEX IN FAHRENHEIT
WCI    - WIND CHILL INDEX IN FAHRENHEIT
TC     - TEMPERATURE IN CELSIUS WHICH IS ALSO KNOWN AS
         TEMPERATURE IN CENTIGRADE
AFB    - AIR FORCE BASE
         LUKE AFB IS LUKE AIR FORCE BASE
         DAVIS-MONTHAN IS DAVIS-MONTHAN AIR FORCE BASE
NAS    - NAVAL AIR STATION
         EL CENTRO NAS IS EL CENTRO NAVAL AIR STATION
N/A    - NOT AVAILABLE


USA.gov is the U.S. government's official web portal to all federal, state and local government web resources and services.